Wind_Speed
12 13 15 16 18 18 18 20 21 20 18 17 18 19 19 18 18 18 18 18 19 18 16 15 14 12 12 12 11 11 10 10 9 9 9 8 7 6 7 6 5 6 7 8 9 9 9 8 10 12 12 11 10 9 8 8 10 11 10 9 8 7 8 9 13 15 15 13 14 15 15 15 16 15 15 16 16 17 16 16 16 16 17 17 18
9 11 11 12 14 16 20 24 24 24 23 20 18 20 20 19 19 19 20 20 21 21 18 18 17 15 14 14 14 13 13 13 12 11 11 11 10 9 9 7 6 7 8 9 9 11 11 10 10 13 14 13 11 8 6 6 7 7 7 8 9 9 10 11 13 15 16 15 15 15 15 15 15 14 14 15 17 18 18 17 17 17 17 18 18
8 8 9 10 11 13 19 24 23 23 26 26 23 21 20 20 20 19 20 20 21 22 21 20 20 18 17 17 16 16 15 15 15 14 14 14 12 11 10 9 8 9 9 8 7 10 12 12 12 14 15 15 13 10 8 7 6 6 8 9 10 11 11 11 13 15 17 17 16 15 14 14 15 15 15 16 17 18 18 17 17 17 18 19 19
8 7 7 8 9 10 15 20 21 21 23 25 26 25 22 22 22 20 19 19 20 22 22 22 22 21 20 19 18 18 18 18 18 16 16 16 15 13 12 11 10 10 9 8 8 10 13 13 12 14 15 15 14 11 8 7 7 8 9 10 10 11 11 11 12 14 16 17 17 17 16 17 17 17 16 16 17 17 17 16 15 16 17 17 18
6 6 6 7 8 8 9 14 18 20 20 20 22 23 22 22 23 22 21 21 22 22 22 23 24 23 23 23 22 22 22 21 21 19 18 18 17 15 14 13 12 11 11 11 11 12 13 13 13 14 14 14 13 10 9 10 11 11 11 11 10 11 12 13 13 15 16 18 19 19 19 19 18 17 17 17 17 16 16 15 15 16 17 17 17
6 6 7 8 5 3 4 7 12 16 19 21 19 19 19 20 22 23 23 23 23 23 23 23 25 26 26 25 25 24 24 23 22 21 19 19 18 16 15 14 14 13 13 13 14 14 14 13 13 14 14 14 13 13 13 14 14 13 13 13 13 13 15 15 15 16 17 18 19 19 19 19 18 18 17 16 17 17 16 17 17 16 17 17 17
7 8 8 7 5 5 5 4 6 7 9 12 13 13 15 18 19 20 21 22 23 25 26 25 27 29 28 26 26 25 25 25 23 21 20 19 19 18 17 16 15 15 15 15 15 16 15 15 15 15 15 15 15 15 16 16 16 16 15 15 14 14 16 16 16 16 17 17 18 18 18 18 17 17 16 15 16 17 17 17 17 15 13 13 13
3 3 4 4 6 9 10 11 12 12 11 11 11 12 13 14 16 18 20 22 22 24 25 26 28 30 29 26 25 25 24 24 23 22 20 19 19 18 18 17 16 16 17 16 16 17 17 16 16 16 17 17 17 17 18 18 18 18 17 16 17 17 18 17 16 16 17 17 18 17 18 17 17 17 16 15 15 15 14 14 15 15 14 16 18
5 4 2 1 2 3 6 10 12 15 16 15 14 13 12 12 14 16 18 21 22 21 22 26 28 28 27 26 25 25 25 25 24 23 22 21 20 19 19 18 17 17 17 17 18 18 17 17 18 18 19 19 19 19 19 18 19 19 18 19 19 20 20 20 19 18 17 17 18 18 18 17 16 16 15 14 14 15 15 16 18 19 19 21 22
4 4 3 2 3 3 3 4 5 7 9 9 10 12 12 12 14 15 17 19 21 21 22 24 25 24 24 25 26 27 26 25 26 28 27 24 21 21 21 20 18 17 17 17 17 18 17 17 19 20 21 21 21 22 20 18 18 19 19 19 20 20 22 23 24 22 21 20 20 19 19 19 18 17 17 17 16 17 18 19 20 20 20 21 21
2 2 2 3 4 3 3 3 4 4 5 6 8 9 10 11 12 14 16 17 18 20 22 23 24 25 25 25 26 28 28 29 31 33 31 27 24 23 22 21 20 18 18 17 16 17 17 16 17 20 22 24 23 23 22 21 20 21 21 20 20 21 22 24 25 25 25 25 24 22 21 21 20 19 18 18 17 18 18 18 18 18 18 19 20
2 2 3 4 4 4 4 5 5 5 5 6 7 8 9 10 11 12 14 15 16 17 20 21 22 24 27 27 28 30 32 33 35 34 31 28 26 25 23 20 19 18 17 17 15 14 14 13 15 18 21 23 22 21 22 22 21 22 23 24 25 25 25 25 25 26 26 27 27 26 24 24 23 21 18 17 17 17 17 17 18 19 19 20 20
2 2 3 3 4 4 5 5 6 6 6 6 7 9 9 10 11 12 12 14 14 14 17 20 19 20 25 27 30 33 35 36 36 35 32 28 26 25 20 17 17 16 15 16 15 14 13 14 15 17 19 20 20 19 18 17 17 19 23 25 28 28 28 28 28 28 27 27 29 30 29 28 27 25 22 21 22 22 20 20 20 20 22 22 22
3 3 4 4 5 5 5 6 6 6 7 8 8 9 10 10 11 11 11 13 13 12 14 15 15 18 21 24 28 33 36 37 36 35 32 28 26 23 17 15 16 15 14 16 17 17 17 16 16 16 16 16 16 15 13 13 14 17 21 23 25 26 27 28 28 28 27 27 28 29 27 26 25 25 24 24 26 26 24 23 22 23 24 24 24
4 5 6 6 6 6 6 7 8 8 9 9 9 10 11 11 12 12 12 12 13 14 15 15 15 17 20 21 26 32 34 33 33 33 31 28 26 22 18 18 19 18 16 17 18 18 17 16 16 17 17 16 15 16 17 17 19 22 25 27 28 27 26 24 23 24 24 25 27 27 25 22 21 21 22 22 24 25 26 27 27 29 30 29 28
5 6 7 7 7 7 7 8 9 10 10 10 10 11 11 12 12 13 13 12 13 14 16 17 17 17 18 21 27 32 32 30 30 31 29 26 24 20 19 18 18 17 16 16 16 15 14 14 14 15 15 15 16 19 22 24 26 28 28 29 30 29 25 22 22 23 25 26 28 28 27 26 25 26 26 27 28 28 29 31 32 32 31 29 28
6 7 7 8 8 7 8 9 9 10 11 11 12 11 12 12 12 13 13 14 14 14 14 16 17 17 19 23 27 30 28 27 30 30 27 24 21 18 16 15 13 13 13 13 12 12 12 14 14 15 15 15 17 22 26 27 29 29 28 30 30 27 22 21 21 23 25 27 29 30 30 31 32 33 34 35 35 34 35 37 36 32 29 29 29
8 8 9 9 9 9 10 10 11 11 12 12 12 12 13 13 13 13 14 14 15 15 14 15 17 19 21 24 27 28 27 27 30 28 24 22 20 16 13 10 8 9 10 10 11 11 13 15 17 18 18 18 20 25 28 29 30 30 30 32 30 25 22 22 23 23 23 24 26 28 30 31 32 32 33 33 34 35 39 43 41 35 31 30 29
10 10 11 11 11 12 12 12 13 13 13 13 13 14 14 14 14 15 15 15 16 15 14 15 17 18 20 23 26 27 26 27 29 26 23 21 19 17 14 10 8 9 10 10 10 11 12 14 17 20 21 20 22 25 28 30 32 32 34 35 30 25 23 23 23 23 23 24 25 26 27 28 27 27 27 26 25 27 32 39 41 38 35 34 31
12 13 13 13 14 14 14 14 14 14 14 15 15 15 15 15 15 15 16 16 16 15 15 15 16 18 21 24 25 24 24 25 26 24 22 20 19 18 15 11 9 9 9 9 10 11 11 12 16 21 22 23 25 28 30 32 34 36 38 38 34 29 27 27 27 28 30 30 30 30 30 30 28 26 25 24 24 24 25 28 30 29 29 32 33
15 15 15 15 16 16 16 15 16 17 17 18 18 18 16 15 16 16 16 16 15 16 16 15 18 20 21 21 21 21 22 23 22 20 19 19 17 14 11 9 9 9 10 11 11 12 12 12 17 22 24 25 28 31 33 35 37 38 39 40 39 38 37 38 39 36 34 32 31 30 30 29 27 24 23 23 23 23 23 23 23 22 24 27 28
16 17 17 17 17 17 17 17 19 21 23 24 23 21 18 16 16 16 16 16 17 17 15 16 20 21 21 22 22 21 20 19 18 16 15 13 12 9 9 10 11 11 13 14 14 14 14 13 17 23 26 28 32 34 36 37 38 40 41 42 43 42 41 41 40 34 29 28 28 27 26 24 24 23 23 22 22 21 21 21 21 22 24 25 25
18 18 18 18 18 18 19 19 20 22 24 25 24 22 19 16 16 17 17 17 16 15 16 18 19 18 20 21 19 18 18 15 12 11 10 8 9 9 9 11 12 12 13 14 14 15 15 15 18 23 27 29 31 33 35 37 39 40 40 39 37 35 33 31 28 24 22 23 24 24 24 22 22 23 23 22 22 21 20 20 20 21 24 25 26
20 20 20 20 20 20 20 20 20 20 20 20 19 19 19 16 16 17 17 16 15 16 19 22 21 20 21 20 16 15 15 12 8 7 7 7 8 7 8 9 10 10 12 14 14 15 17 17 20 23 25 26 28 29 30 31 30 30 29 27 26 25 23 22 19 18 19 20 21 22 23 22 22 23 22 21 21 21 21 21 21 22 23 24 25
21 22 21 21 20 20 21 20 20 19 18 17 17 17 17 17 17 17 17 18 18 17 18 22 24 24 22 17 13 11 11 8 6 5 5 5 5 5 6 7 8 9 10 12 14 16 18 20 22 25 27 27 27 25 22 20 20 21 21 20 20 20 18 17 17 17 18 19 20 22 23 22 23 23 22 21 21 22 23 23 23 22 22 22 24
23 23 22 22 22 22 22 21 20 19 18 17 17 17 17 18 17 15 15 16 16 15 17 20 22 21 17 14 12 11 9 5 3 2 1 2 3 5 6 6 8 9 10 13 16 18 21 23 25 26 25 23 21 19 17 17 18 17 17 17 18 18 16 16 17 18 20 20 21 22 22 22 22 22 22 22 23 23 22 22 23 22 20 20 21
22 22 22 22 22 22 22 22 21 19 18 17 17 16 16 17 15 13 13 13 14 18 22 22 22 19 15 14 14 13 11 8 5 4 3 0 3 5 6 8 10 11 12 14 16 18 21 23 22 20 19 18 18 17 18 18 17 16 16 16 16 16 16 17 18 20 22 23 23 23 23 22 22 22 22 22 23 21 20 20 21 21 20 20 21
23 23 22 21 21 21 21 21 21 19 19 18 16 13 14 14 13 11 11 12 18 24 25 23 22 18 15 14 14 13 13 11 8 5 3 1 1 3 5 6 8 10 11 14 16 18 20 19 16 14 15 16 16 16 16 15 15 15 16 16 15 16 17 18 20 21 22 22 23 24 24 24 24 24 23 23 22 20 19 20 21 22 21 21 24
26 26 24 23 23 21 20 20 19 17 17 17 16 15 14 11 9 11 15 19 22 24 24 22 21 20 19 18 16 14 14 11 7 3 1 2 4 6 7 8 9 11 13 15 17 17 16 14 12 13 14 15 15 15 15 16 16 16 16 16 16 17 17 18 19 20 20 21 23 25 26 26 26 26 26 26 24 22 22 25 26 26 26 27 30
26 27 26 25 24 21 20 20 17 15 16 18 19 17 14 12 13 19 25 26 24 23 23 24 23 22 21 20 17 13 10 7 3 2 2 4 7 9 10 11 12 13 14 16 16 15 13 12 13 14 15 14 15 15 15 16 17 17 18 18 18 19 19 19 20 20 21 23 25 26 27 27 27 27 27 28 28 26 27 29 30 30 30 32 34
25 25 25 24 24 23 22 20 17 17 18 19 18 16 17 20 22 24 27 27 26 24 24 23 21 19 18 17 14 10 7 4 3 3 5 7 9 11 13 13 14 14 15 16 16 13 12 13 14 14 14 14 14 15 15 17 18 18 19 20 20 20 21 21 22 22 24 25 26 27 28 28 29 29 29 29 29 28 28 29 30 30 30 31 33
26 25 23 23 24 25 24 22 21 21 19 19 20 21 24 29 29 26 25 23 22 21 20 18 17 15 14 12 10 7 5 3 3 5 7 9 12 14 14 13 14 15 16 16 16 14 13 14 14 13 13 14 14 14 15 17 18 19 20 21 21 21 22 22 23 24 25 27 28 29 30 30 30 30 30 30 29 29 30 30 30 30 30 30 31
26 25 23 22 22 23 25 26 25 23 22 23 26 28 31 34 32 28 24 21 20 20 19 17 15 13 11 9 7 5 3 2 4 6 9 12 14 15 15 15 17 18 17 15 13 13 14 14 13 13 14 14 14 15 16 18 20 21 22 21 21 21 22 23 24 24 25 26 27 27 28 28 29 29 30 30 30 29 30 30 30 29 29 29 30
26 26 27 26 23 23 25 25 24 25 26 27 29 31 33 35 33 30 27 24 22 20 19 16 13 10 8 6 4 2 2 3 5 8 10 13 15 16 17 18 18 17 16 14 13 14 14 14 14 14 14 14 15 16 17 19 21 22 22 22 22 23 24 25 26 26 27 27 26 25 26 27 28 28 29 29 29 29 29 29 29 28 28 29 29
26 27 28 28 25 23 23 25 28 29 27 27 31 34 34 34 33 30 27 25 23 20 17 14 11 8 5 4 2 1 2 4 6 8 11 14 16 18 17 15 12 11 11 13 13 14 14 14 14 15 15 15 16 16 17 19 21 21 21 21 22 24 26 27 28 28 27 27 27 26 25 26 26 27 28 28 29 29 29 29 29 28 28 28 29
29 29 28 28 26 23 25 31 34 32 28 27 31 34 33 31 30 28 25 23 20 16 13 10 8 6 3 2 0 1 3 4 7 10 13 15 17 17 14 10 9 9 10 11 13 13 13 13 14 15 15 16 16 17 17 19 21 22 22 22 24 26 27 28 28 28 27 27 26 25 24 24 25 25 26 27 28 28 28 28 28 28 28 29 28
25 24 24 24 25 27 31 34 36 34 30 28 31 32 31 30 28 25 22 19 15 12 10 8 6 4 2 1 1 2 4 6 9 12 14 15 15 15 12 10 10 10 11 13 13 12 12 13 14 14 15 15 16 17 19 21 23 24 24 25 26 27 28 29 28 28 27 27 26 25 25 24 24 23 24 26 27 27 27 27 27 27 28 29 29
20 19 20 24 30 35 37 36 35 34 30 27 29 30 29 26 23 20 17 14 12 10 8 5 3 2 1 2 3 4 6 8 10 12 12 12 12 11 10 11 11 10 11 13 13 12 12 12 13 14 14 14 16 19 21 23 25 26 26 27 27 28 30 30 29 28 28 27 25 24 24 24 23 22 22 23 23 23 24 25 25 26 27 28 28
20 20 23 30 37 38 37 35 34 32 29 28 28 28 25 22 19 16 14 12 11 10 8 3 3 3 2 4 4 4 5 7 8 7 7 7 8 8 9 11 11 11 12 12 12 12 12 12 13 13 14 15 18 22 25 26 26 27 27 28 29 30 31 31 30 29 28 27 25 24 23 22 21 20 20 21 21 21 21 22 22 22 24 25 26
25 28 32 37 38 37 35 34 33 31 28 27 26 24 21 18 16 14 13 11 11 10 8 4 4 5 5 4 3 3 3 4 5 5 5 5 6 7 9 10 10 11 12 12 11 11 12 12 13 14 15 17 20 24 26 27 27 28 28 28 29 30 31 32 31 30 30 28 27 25 23 21 19 19 19 20 20 20 20 20 20 20 20 21 21
34 36 37 38 37 35 33 31 29 27 25 23 22 20 17 16 14 13 12 11 10 9 7 6 6 6 5 4 4 4 3 1 3 4 4 5 6 7 8 9 10 11 11 11 11 11 12 13 14 15 17 19 22 25 27 27 28 29 29 29 29 31 32 32 32 31 30 29 27 25 22 19 18 17 17 16 16 16 17 18 17 17 17 17 17
37 38 39 38 35 32 28 26 25 23 22 20 19 18 16 14 13 12 11 10 9 8 6 5 6 7 5 4 4 3 1 2 3 4 3 4 5 5 6 8 10 10 10 10 10 10 12 14 15 16 18 22 24 25 26 27 28 29 29 29 30 31 32 33 32 32 31 29 27 24 20 17 15 15 14 12 11 12 12 11 11 11 12 12 11
33 35 35 32 28 25 24 24 24 23 21 19 17 15 13 12 12 11 10 9 7 6 5 4 4 5 4 4 4 2 1 2 4 5 5 6 5 5 7 8 8 9 9 9 9 10 11 13 15 16 19 23 24 24 25 27 28 28 29 29 30 31 33 33 33 32 30 28 26 22 18 15 14 13 10 8 8 7 6 5 4 4 6 7 8
30 28 26 23 22 22 22 23 23 23 21 19 18 15 13 12 11 10 9 8 7 5 4 3 3 4 4 4 3 1 1 3 5 6 6 5 5 6 7 7 8 9 9 9 9 11 12 13 15 17 20 23 24 24 26 27 27 28 29 29 29 31 33 33 33 32 29 27 24 21 17 14 13 10 8 6 6 5 5 4 3 4 5 8 10
26 24 22 21 21 22 21 21 21 20 17 15 15 14 13 11 10 8 7 6 6 4 4 4 4 4 3 3 3 3 3 4 4 5 4 3 4 5 7 8 10 12 11 9 10 13 14 14 16 19 21 24 26 26 27 28 28 28 27 27 29 31 33 32 32 30 27 25 23 19 16 14 12 9 7 4 4 5 7 7 8 8 9 10 10
23 22 20 21 22 22 21 20 18 16 13 11 11 11 10 9 7 6 4 4 4 5 5 5 4 4 3 4 5 6 5 4 3 4 4 2 3 5 9 11 12 13 12 10 11 14 15 15 17 19 21 25 27 27 27 28 29 29 27 25 27 30 31 31 30 28 26 24 21 18 16 15 13 10 6 4 4 5 7 8 9 9 9 9 8
20 19 18 18 20 20 18 16 13 11 9 7 7 8 9 7 5 4 3 3 3 4 4 3 3 3 4 6 7 7 6 5 5 4 4 4 4 6 10 11 12 12 13 11 12 14 16 16 17 19 21 24 27 27 27 28 30 30 28 25 26 29 30 29 28 28 26 23 20 18 17 16 13 10 8 5 4 4 4 6 6 6 6 6 6
18 17 15 15 16 16 14 11 9 7 6 5 6 7 6 5 4 3 3 2 3 4 3 2 2 3 5 6 7 6 6 6 5 3 3 4 5 6 9 11 11 12 12 11 12 14 15 16 17 18 20 24 27 27 28 30 32 32 30 27 26 27 28 28 27 28 27 23 20 18 18 16 14 12 10 7 6 4 2 2 3 4 4 5 6
16 14 14 14 14 14 12 9 7 6 6 6 5 5 4 4 3 3 2 2 3 4 3 2 3 4 5 6 6 6 6 7 6 4 2 2 3 6 9 10 10 11 12 12 12 14 15 16 16 16 19 23 24 22 23 28 32 33 31 29 26 26 27 26 26 27 27 25 22 19 18 17 15 13 11 10 8 5 3 1 1 2 3 5 7
14 14 13 13 13 11 9 7 7 6 6 5 5 4 4 4 2 2 3 3 3 4 4 4 4 5 6 6 7 6 5 5 6 5 3 2 3 6 9 9 9 10 11 11 12 13 14 15 16 15 16 19 19 18 21 27 31 32 31 30 27 25 25 25 24 25 26 25 23 21 19 17 16 14 13 12 10 7 5 3 3 2 3 6 10
13 12 12 12 11 10 8 7 6 6 5 5 5 4 3 2 2 2 3 3 3 3 4 4 5 5 5 6 6 5 4 3 4 5 3 2 3 6 9 9 8 9 10 11 12 13 13 14 15 15 13 14 16 20 25 29 30 30 31 30 27 24 24 24 23 23 24 24 24 22 20 17 16 15 14 13 11 9 6 4 4 5 7 10 13
Wind_Direction
189 195 202 207 209 212 217 218 217 219 223 225 224 219 215 216 214 212 212 211 219 232 235 233 239 243 240 241 243 245 245 243 247 254 258 263 267 270 288 301 290 288 305 315 317 323 336 336 330 336 345 351 353 348 340 329 328 332 326 315 305 293 285 282 283 286 288 287 288 289 287 286 287 287 288 287 281 278 275 269 265 266 270 272 272
201 204 208 212 213 217 224 226 225 226 226 228 232 229 223 222 222 220 219 219 224 235 238 234 237 239 235 235 236 237 242 244 244 248 249 254 260 263 279 291 272 269 294 307 307 310 321 326 320 322 330 336 342 345 328 305 306 302 291 287 285 283 283 281 283 287 288 288 289 291 292 293 292 290 288 285 284 284 283 277 271 269 270 269 268
204 207 212 212 214 224 232 234 236 241 239 236 237 237 232 229 228 226 223 221 224 233 235 232 236 236 230 230 231 230 231 237 243 246 245 252 258 258 265 273 269 275 290 294 285 291 307 317 316 316 323 329 332 332 321 308 302 286 277 278 280 283 284 282 283 285 288 292 293 293 293 292 289 290 290 288 288 289 289 288 283 278 274 271 270
205 196 203 216 224 233 241 242 242 245 245 242 242 244 242 239 238 235 229 224 224 228 228 227 231 231 227 226 227 229 230 234 243 246 244 251 256 258 261 265 268 277 283 277 271 278 293 302 304 307 315 319 321 322 313 298 292 285 283 285 287 288 286 282 283 284 287 290 293 293 292 291 291 292 292 290 289 289 290 289 286 283 279 275 274
205 199 197 210 223 230 245 253 249 245 244 244 243 240 238 241 244 241 236 233 232 230 227 227 225 221 223 226 227 234 238 237 242 245 244 249 252 252 256 262 267 272 274 277 278 279 284 289 291 296 304 308 310 308 295 284 286 288 286 284 283 280 277 275 276 279 283 286 289 292 293 293 293 292 292 292 290 289 288 285 283 281 277 273 269
157 168 177 184 189 202 231 251 255 254 253 251 246 241 240 244 247 244 241 239 235 229 225 226 226 221 222 223 224 232 239 239 242 243 242 246 249 249 252 257 263 268 273 282 284 282 283 285 285 289 295 298 298 294 291 291 293 293 290 289 288 283 280 281 282 282 283 284 286 290 292 293 293 292 293 292 290 289 288 286 285 283 280 277 273
160 166 176 180 182 189 195 223 254 262 258 254 254 259 262 259 254 247 244 243 240 236 232 230 229 228 225 220 218 223 229 233 237 236 234 240 246 247 249 252 258 264 270 277 280 280 282 283 285 288 291 292 291 292 293 295 295 294 292 291 290 288 287 287 287 285 284 284 284 286 287 289 289 289 290 289 286 286 287 288 289 288 284 278 272
115 171 203 220 221 222 231 251 264 266 269 274 276 278 275 269 262 254 249 246 243 242 241 236 232 230 228 223 217 215 218 224 227 226 227 233 240 243 247 252 255 261 269 275 276 279 282 283 284 287 289 291 293 294 295 296 295 294 292 288 286 286 286 287 287 286 285 285 284 283 284 285 284 285 288 288 285 284 285 287 287 285 280 272 268
70 65 42 339 294 265 263 268 268 266 269 272 272 274 274 269 265 260 252 247 244 242 242 238 235 231 228 224 217 214 216 215 215 221 224 225 231 241 246 250 252 259 269 276 278 280 284 286 287 288 292 296 298 297 298 297 296 295 293 291 290 289 288 287 286 284 283 283 282 283 283 282 282 283 285 284 282 283 284 284 284 286 286 283 280
67 63 46 13 351 353 327 298 287 277 275 272 266 269 269 266 264 261 255 251 247 246 244 241 238 231 225 221 217 216 217 212 214 224 229 228 235 244 247 249 251 257 266 271 275 281 286 289 291 293 296 298 299 300 301 299 296 293 290 287 287 289 290 289 287 284 282 281 280 281 282 280 279 280 280 280 281 283 284 284 285 286 288 288 287
26 28 8 344 337 335 315 298 290 282 282 281 277 274 269 266 263 258 258 255 249 247 245 242 238 230 223 220 219 217 217 217 221 228 233 238 243 244 243 246 250 255 261 265 270 279 286 289 290 292 297 300 301 302 303 303 300 296 293 290 289 289 290 289 288 287 284 281 278 277 277 278 278 279 280 282 283 283 283 284 284 285 287 288 288
354 350 334 326 324 315 302 295 290 284 281 278 277 273 267 265 260 254 254 255 252 249 244 242 240 235 229 226 221 218 219 224 229 232 235 242 245 243 242 245 249 254 260 263 266 271 276 278 280 285 292 297 299 301 304 307 306 303 302 301 301 300 299 296 293 291 288 285 281 277 274 273 274 275 278 281 282 282 281 279 279 280 281 280 280
320 312 313 312 307 299 295 292 288 285 282 278 275 271 267 263 257 253 251 251 253 251 244 241 239 237 235 230 224 223 228 235 240 239 237 238 241 240 238 237 243 252 258 261 266 269 268 269 273 280 286 291 296 301 303 303 302 300 303 305 306 307 306 304 301 297 293 289 284 281 278 274 271 269 267 266 267 270 275 278 279 280 279 277 275
301 302 301 300 297 296 294 291 289 287 285 283 280 274 269 263 256 254 255 254 253 250 243 238 231 230 236 235 230 231 236 242 244 240 236 235 237 235 226 225 238 248 253 260 270 276 275 273 273 275 279 283 286 286 282 279 281 288 294 297 298 301 301 300 300 298 295 291 287 285 283 278 273 271 268 265 264 265 268 271 271 270 268 268 270
295 299 299 299 300 296 292 292 292 293 292 290 286 280 274 268 260 258 259 256 250 247 244 242 236 231 232 232 229 229 235 241 242 237 232 234 234 229 222 229 243 252 257 265 273 278 277 276 278 280 282 281 276 271 271 275 280 286 289 291 294 297 294 289 288 288 286 285 284 286 285 279 273 271 267 262 259 257 257 257 256 256 258 261 267
290 292 293 295 292 287 288 293 294 294 295 292 288 284 278 271 264 261 260 255 250 249 247 245 241 233 227 226 226 229 234 238 236 230 227 228 228 224 227 238 250 259 265 270 273 273 271 271 275 278 279 278 274 273 276 282 288 290 292 294 298 299 294 285 280 278 277 276 275 275 273 268 264 262 258 256 255 255 256 256 254 256 261 267 271
280 285 287 286 281 277 282 289 291 293 296 295 291 288 282 275 268 262 260 255 249 248 246 244 242 235 226 222 223 230 235 231 224 222 222 223 223 224 231 242 252 260 264 265 265 264 265 266 268 268 269 269 270 275 280 286 291 293 292 295 299 298 291 286 282 278 276 276 277 276 275 272 269 265 261 259 258 257 257 258 257 259 265 269 270
276 280 282 280 276 277 281 283 286 288 290 292 292 289 284 278 270 262 260 256 251 249 246 243 240 235 227 219 220 229 233 223 217 217 220 223 225 226 230 238 246 250 253 257 260 263 268 274 278 277 275 274 275 280 285 289 292 292 292 296 297 292 288 288 286 283 279 277 278 279 280 279 278 276 272 268 263 258 255 256 257 259 261 263 265
274 278 281 280 278 278 279 282 285 286 285 287 288 287 284 278 269 262 258 256 255 251 245 240 236 229 221 216 220 227 226 216 212 214 218 223 228 229 226 223 231 243 252 259 264 267 271 279 286 285 282 281 279 281 284 286 288 289 290 292 291 287 287 289 288 285 281 276 273 272 273 275 277 278 278 276 272 264 257 255 256 256 257 258 261
274 277 280 280 278 279 280 282 284 284 284 285 286 286 284 275 266 261 256 255 256 251 244 239 226 211 207 210 217 222 217 209 208 212 217 224 232 238 236 227 230 246 257 261 268 274 277 283 285 282 281 281 281 281 282 284 285 286 287 288 287 285 286 284 282 281 279 276 273 270 269 270 270 269 270 270 269 266 262 258 255 254 255 256 257
273 276 277 277 276 276 277 278 279 279 280 282 285 287 284 273 264 259 255 254 251 246 243 231 209 200 201 202 203 207 207 205 204 207 215 225 235 244 248 239 234 243 254 263 272 279 282 283 281 279 278 278 278 278 279 280 283 284 285 286 286 285 285 283 282 282 280 278 276 274 272 272 271 269 268 268 266 264 262 258 255 252 252 253 254
270 271 272 273 272 272 272 273 275 278 281 282 284 286 284 273 261 255 253 251 246 241 233 214 202 202 202 196 191 195 201 203 206 213 222 232 240 247 252 253 256 262 268 276 281 282 280 281 278 277 277 277 278 279 280 282 283 284 285 286 286 285 285 284 283 280 277 276 275 275 274 273 271 270 268 267 266 263 261 258 256 254 253 252 252
267 268 269 269 267 266 266 268 270 273 277 280 282 286 286 273 257 252 250 245 238 228 211 201 199 200 197 190 189 195 197 197 210 225 231 238 246 251 254 261 270 277 281 286 289 287 285 281 275 274 277 278 279 279 279 279 279 280 281 281 282 284 285 283 281 277 274 274 273 272 272 271 270 270 268 266 265 264 262 261 259 258 257 255 253
267 267 266 266 266 264 263 265 265 265 267 270 274 280 281 266 251 249 243 232 228 226 214 204 197 187 178 170 167 181 191 194 209 228 238 246 253 259 266 274 284 290 291 293 292 290 289 286 283 286 290 290 289 287 284 282 280 281 283 285 287 291 289 284 280 276 274 273 272 272 271 269 269 269 268 266 266 264 263 262 261 260 260 260 258
265 265 265 264 263 263 263 262 261 259 258 261 266 272 270 255 244 239 229 223 229 227 210 197 190 182 173 163 159 171 185 189 196 214 237 251 254 264 277 287 292 291 290 294 298 301 304 305 305 305 304 303 303 301 298 296 294 295 297 300 303 303 294 284 280 278 275 273 273 272 271 270 269 269 269 269 268 266 264 263 261 259 257 257 258
261 261 261 260 260 261 261 260 260 258 256 258 264 266 257 244 234 225 220 226 228 208 185 182 183 179 169 161 156 156 161 164 145 103 28 304 297 307 316 318 315 312 314 316 317 318 317 314 312 309 309 311 312 309 308 309 309 308 309 311 310 305 295 285 283 281 279 277 276 274 274 272 271 270 269 269 268 266 264 261 259 259 258 258 259
260 259 258 257 257 258 258 258 258 256 255 258 260 255 241 231 227 225 225 221 200 180 173 172 169 162 154 152 149 143 141 139 119 102 103 25 321 324 326 328 330 331 327 321 318 316 312 310 310 313 319 321 317 313 314 316 314 312 311 308 303 297 291 286 284 283 282 281 279 277 277 276 274 272 269 268 267 264 261 259 259 261 261 259 259
258 258 259 258 257 257 256 256 256 253 252 252 247 233 222 223 232 236 223 196 177 173 172 166 159 155 156 156 149 140 144 153 157 160 165 168 296 317 326 330 330 326 319 317 318 316 314 316 320 323 321 316 312 311 311 310 307 306 305 302 297 293 290 288 286 284 282 281 280 279 278 276 274 272 269 268 265 261 258 259 261 262 259 257 258
256 257 257 257 256 255 254 254 252 248 243 238 230 223 222 223 217 195 180 173 169 167 163 159 155 154 156 155 150 152 164 172 173 163 132 21 355 349 348 344 337 332 329 328 327 326 329 333 330 322 315 312 310 310 309 308 308 306 304 301 299 296 293 291 289 286 283 281 279 279 278 277 275 273 270 268 264 260 261 264 266 265 264 262 264
256 255 254 252 253 252 251 251 248 236 226 224 223 218 207 191 180 174 169 165 161 155 153 155 156 157 158 155 153 160 173 171 146 105 48 11 1 356 353 349 344 340 335 333 334 340 346 340 326 319 317 314 312 311 311 310 310 307 305 303 300 297 293 289 287 284 280 277 275 274 274 274 273 272 270 269 267 265 266 269 270 269 268 267 267
254 251 248 247 247 245 245 245 234 216 208 210 212 203 182 168 164 163 161 159 158 155 154 156 157 156 156 154 152 157 162 148 107 52 24 13 6 0 356 352 346 339 337 344 355 1 349 329 320 319 316 313 312 312 311 311 310 308 307 305 301 297 292 289 288 286 281 279 278 276 275 274 273 273 272 272 272 272 272 275 276 275 272 269 267
248 246 244 244 244 242 240 235 220 202 189 185 187 183 171 160 155 152 152 155 157 154 151 151 149 146 145 147 148 148 143 120 59 33 22 13 9 4 357 350 346 345 351 2 8 359 336 322 319 319 315 312 312 310 310 310 309 306 304 302 300 297 295 295 295 292 287 285 284 283 281 279 277 275 274 274 275 275 275 278 278 276 274 271 268
243 240 238 238 237 235 234 227 209 186 167 161 164 163 160 157 155 152 150 150 150 148 144 143 143 142 142 143 143 139 126 80 37 26 19 14 11 4 358 357 356 356 2 10 2 340 328 323 319 317 314 313 311 309 307 307 308 306 303 300 298 299 303 306 305 301 298 297 294 288 285 284 282 281 279 278 279 277 274 274 274 271 269 267 266
240 238 235 231 227 228 228 216 193 170 158 155 156 156 158 159 157 152 149 149 151 149 145 142 142 143 143 142 137 121 79 44 29 23 20 16 9 2 4 9 6 359 1 4 349 332 328 327 321 317 316 313 311 310 306 305 307 308 306 303 302 304 309 314 313 310 309 308 304 296 290 288 286 283 280 277 276 274 270 269 269 268 265 264 265
235 233 231 227 224 219 206 185 170 161 156 156 158 159 159 157 153 151 152 153 153 150 148 148 147 145 144 146 138 86 36 28 22 20 17 11 7 11 18 19 7 355 355 352 340 332 331 329 323 320 318 314 312 311 309 308 309 309 307 306 306 309 315 320 321 318 315 310 306 301 295 290 288 285 281 277 274 272 270 268 267 266 265 265 265
231 230 229 227 221 204 179 166 161 157 153 155 159 158 154 150 150 151 153 153 154 155 159 161 160 160 162 159 120 8 14 17 15 16 14 9 12 25 31 14 350 349 349 341 336 335 333 329 325 322 319 316 314 313 311 311 312 311 311 311 313 317 322 325 325 323 320 315 312 308 303 298 293 288 284 281 277 272 270 268 266 264 263 262 264
225 220 215 209 197 175 160 156 154 150 146 149 153 152 149 149 150 152 154 155 157 162 167 169 172 180 181 143 20 1 12 14 9 12 16 18 22 30 23 354 341 346 345 339 338 336 332 330 327 323 321 320 319 319 318 317 319 320 321 321 322 324 327 328 328 327 325 321 317 312 308 304 299 292 286 283 280 277 272 268 266 264 262 261 262
207 196 186 176 164 154 149 148 147 143 142 146 149 149 149 150 149 149 152 156 157 161 170 176 172 170 277 330 350 16 26 18 11 14 20 18 15 13 1 346 342 343 341 339 337 334 332 331 328 327 326 326 327 330 330 328 328 329 329 329 329 329 330 331 332 332 330 326 321 315 310 307 303 299 293 288 284 281 275 270 267 264 263 261 260
187 178 168 158 150 146 146 146 146 143 142 143 145 145 145 147 148 149 155 161 161 162 169 165 123 141 235 297 326 354 0 354 354 3 7 0 355 352 349 346 345 342 338 337 335 333 333 332 330 331 332 332 336 341 339 335 334 334 334 334 333 333 334 334 334 335 334 332 327 322 317 311 307 304 298 292 287 284 280 277 273 268 264 262 259
156 152 150 148 146 146 146 145 142 139 137 137 140 141 142 146 151 157 164 168 167 168 173 168 157 181 219 252 255 245 276 314 325 328 325 326 339 348 345 343 343 341 338 336 334 334 334 333 334 336 336 337 342 346 344 341 340 340 340 339 336 336 337 338 338 339 338 335 331 328 324 317 311 307 301 294 290 287 283 279 275 270 266 263 259
135 136 139 141 141 139 137 135 133 132 134 137 140 143 146 151 156 160 165 166 167 170 170 171 192 221 249 271 257 226 201 232 302 308 309 315 332 344 345 343 343 341 338 336 336 335 335 336 337 337 337 339 344 347 348 347 346 345 344 344 342 340 340 341 341 342 341 338 335 332 327 320 313 307 300 294 290 287 281 275 269 264 261 259 253
127 129 131 132 131 129 129 132 132 134 138 141 143 145 149 152 153 156 160 162 166 170 168 180 221 248 263 279 279 262 212 243 283 297 302 299 307 328 344 347 344 340 338 340 339 335 335 338 339 337 336 339 343 347 349 350 349 348 347 346 345 343 342 343 345 346 343 339 337 333 327 321 317 311 303 296 295 292 283 272 263 252 249 251 245
122 126 127 126 124 126 131 134 136 136 137 137 139 143 149 149 147 150 153 153 156 161 161 183 247 275 280 276 278 286 271 272 279 282 286 294 311 337 349 347 343 343 344 345 341 336 337 339 340 339 339 342 346 349 350 349 349 349 348 347 347 346 346 346 347 347 343 340 338 335 331 329 326 320 309 297 295 293 282 273 266 249 237 235 230
115 119 122 123 126 131 135 137 139 141 141 141 139 135 133 133 135 137 139 141 144 146 151 178 239 279 293 298 305 316 288 282 279 277 283 310 338 344 340 339 342 347 349 347 343 342 343 343 342 342 344 346 348 350 349 349 349 350 351 350 349 349 349 349 349 348 345 342 341 340 340 341 336 324 311 299 289 277 260 246 238 226 217 220 225
119 115 113 117 127 134 138 140 142 144 145 148 147 141 137 139 144 145 148 157 173 191 213 232 244 257 279 297 294 270 260 279 295 295 303 331 337 328 334 347 351 351 352 350 347 348 350 349 349 348 347 348 349 350 350 350 351 353 353 353 352 352 351 350 351 351 350 347 345 346 349 351 344 331 320 310 281 257 243 233 227 222 220 228 237
132 126 122 125 134 139 139 140 144 147 149 154 158 160 165 170 173 175 183 197 212 225 236 243 252 259 261 267 273 271 265 266 273 273 281 311 347 349 352 357 357 358 359 356 353 354 355 357 358 354 349 348 350 351 352 353 353 354 355 357 357 356 354 353 356 359 358 352 350 353 357 357 351 343 335 322 288 262 247 238 232 228 226 234 241
139 137 137 139 143 145 145 146 151 157 163 168 172 177 181 184 186 192 196 201 214 228 233 237 254 265 262 264 274 280 280 277 272 274 296 335 7 10 2 357 0 6 5 359 357 359 360 3 7 1 352 350 352 355 357 358 357 357 359 1 1 359 356 356 1 6 5 359 357 1 3 360 356 355 353 339 315 294 264 243 237 232 226 222 214
143 143 145 147 149 151 153 158 163 168 171 172 171 174 178 180 180 182 188 204 220 224 222 225 248 260 261 265 275 284 289 288 286 292 323 333 339 357 3 1 4 10 9 3 2 3 3 8 14 8 356 354 357 360 0 2 2 1 2 4 4 1 359 0 6 11 11 7 6 8 9 6 4 7 8 360 344 332 306 242 224 219 210 193 179
150 154 157 161 164 165 168 172 172 167 159 157 160 164 166 164 163 170 189 219 226 220 214 220 241 253 258 265 272 280 288 293 294 299 317 325 335 357 5 3 6 14 15 9 7 7 7 11 18 12 359 356 359 360 358 1 4 5 5 6 5 3 1 3 9 15 16 14 12 13 15 14 11 14 19 18 11 5 5 24 162 198 187 165 163
158 162 165 168 172 174 173 168 159 151 148 148 147 145 145 146 163 197 212 216 219 221 224 233 243 250 257 263 265 265 272 284 289 292 302 337 4 4 2 2 11 21 19 13 12 13 11 13 20 17 1 355 358 0 359 360 4 6 7 8 7 5 4 5 11 18 20 18 16 17 20 20 18 21 27 30 28 27 36 56 77 117 153 157 160
148 153 156 157 156 155 153 148 142 139 140 139 137 139 148 166 213 231 229 229 236 242 247 254 255 252 252 255 256 253 256 269 278 279 283 323 9 4 1 5 16 25 23 19 18 15 12 16 24 22 4 353 358 5 4 3 4 8 10 11 9 7 6 9 13 19 22 22 20 19 21 23 25 29 34 36 35 37 44 63 92 118 139 151 156
Height
1496 1498 1500 1502 1504 1506 1508 1509 1510 1512 1513 1515 1516 1516 1517 1519 1520 1520 1519 1520 1519 1519 1519 1520 1521 1522 1523 1523 1524 1525 1525 1526 1527 1527 1528 1528 1529 1529 1529 1530 1530 1530 1530 1530 1530 1530 1530 1530 1529 1529 1528 1528 1528 1528 1528 1527 1527 1527 1527 1527 1527 1528 1528 1528 1526 1525 1524 1524 1523 1522 1521 1520 1519 1519 1518 1517 1516 1515 1515 1515 1515 1515 1515 1514 1514
1496 1498 1499 1501 1503 1504 1506 1507 1508 1509 1510 1513 1515 1515 1516 1517 1519 1519 1519 1519 1518 1518 1518 1518 1519 1520 1521 1521 1522 1523 1523 1524 1525 1526 1526 1527 1527 1528 1528 1529 1529 1529 1529 1529 1528 1528 1528 1529 1528 1528 1527 1527 1527 1527 1527 1527 1527 1527 1527 1527 1527 1526 1526 1525 1525 1523 1522 1521 1521 1520 1519 1518 1517 1517 1516 1515 1514 1513 1512 1512 1512 1512 1512 1512 1512
1496 1497 1498 1500 1501 1502 1503 1505 1507 1508 1509 1509 1511 1513 1515 1515 1517 1518 1518 1518 1518 1518 1518 1518 1517 1518 1519 1519 1520 1521 1521 1522 1522 1523 1524 1525 1525 1526 1527 1527 1528 1528 1528 1528 1528 1527 1527 1527 1527 1526 1526 1526 1526 1526 1526 1526 1526 1526 1525 1525 1524 1524 1523 1523 1522 1521 1519 1518 1518 1518 1517 1517 1515 1514 1514 1513 1512 1511 1510 1509 1509 1509 1509 1509 1509
1496 1496 1497 1499 1500 1500 1501 1503 1504 1506 1507 1507 1508 1510 1512 1513 1514 1515 1516 1517 1517 1517 1518 1518 1517 1517 1517 1517 1518 1518 1519 1519 1520 1521 1522 1522 1523 1524 1525 1525 1526 1526 1526 1527 1527 1526 1526 1526 1526 1525 1525 1525 1525 1525 1525 1525 1524 1524 1523 1523 1522 1522 1522 1521 1520 1519 1518 1516 1516 1516 1515 1514 1513 1512 1512 1511 1510 1509 1508 1507 1507 1507 1507 1507 1507
1495 1495 1496 1497 1498 1499 1499 1501 1502 1503 1504 1505 1505 1506 1508 1509 1510 1511 1513 1513 1513 1515 1516 1517 1516 1516 1515 1515 1515 1515 1516 1516 1517 1518 1519 1520 1521 1522 1522 1523 1524 1524 1525 1525 1525 1525 1525 1525 1525 1524 1524 1524 1523 1523 1523 1523 1523 1522 1522 1521 1521 1520 1519 1519 1518 1517 1516 1515 1514 1513 1512 1511 1511 1510 1510 1509 1508 1507 1506 1506 1505 1505 1504 1504 1504
1492 1493 1496 1496 1496 1497 1497 1499 1501 1501 1502 1502 1502 1502 1503 1504 1506 1508 1509 1510 1510 1510 1512 1513 1514 1514 1513 1513 1513 1513 1514 1515 1515 1516 1518 1519 1519 1520 1520 1521 1521 1522 1522 1523 1523 1523 1523 1523 1523 1523 1522 1522 1522 1522 1521 1521 1520 1520 1519 1519 1518 1518 1516 1516 1515 1514 1514 1512 1511 1510 1510 1509 1508 1508 1507 1507 1506 1505 1504 1503 1502 1502 1501 1500 1500
1492 1493 1494 1494 1494 1495 1497 1499 1499 1499 1500 1500 1500 1500 1500 1501 1503 1504 1506 1507 1507 1507 1507 1509 1511 1512 1512 1511 1511 1511 1512 1513 1513 1515 1516 1517 1518 1518 1519 1519 1519 1519 1520 1520 1520 1520 1520 1521 1520 1520 1520 1520 1520 1519 1519 1518 1518 1517 1517 1516 1516 1515 1514 1513 1513 1512 1511 1510 1509 1508 1507 1507 1506 1505 1505 1505 1504 1503 1502 1501 1500 1500 1499 1499 1498
1492 1492 1492 1492 1493 1494 1495 1496 1497 1497 1498 1499 1499 1499 1499 1500 1501 1502 1503 1504 1505 1504 1504 1504 1506 1509 1510 1510 1510 1510 1510 1510 1511 1512 1514 1515 1516 1517 1517 1518 1517 1517 1518 1518 1518 1518 1518 1518 1518 1518 1518 1518 1518 1517 1517 1516 1515 1515 1515 1514 1513 1512 1511 1511 1510 1510 1509 1508 1507 1506 1505 1505 1504 1503 1503 1503 1502 1502 1501 1500 1498 1497 1497 1496 1495
1491 1491 1492 1492 1493 1493 1493 1493 1494 1495 1496 1497 1497 1498 1498 1499 1500 1500 1501 1501 1502 1502 1501 1501 1502 1505 1507 1507 1507 1508 1508 1508 1507 1508 1510 1511 1513 1514 1515 1516 1516 1515 1515 1516 1516 1516 1516 1516 1515 1515 1515 1515 1515 1515 1514 1513 1513 1512 1512 1511 1511 1510 1509 1508 1508 1507 1507 1506 1505 1504 1503 1502 1502 1501 1501 1501 1500 1499 1498 1497 1495 1494 1493 1492 1491
1490 1491 1492 1492 1493 1493 1493 1493 1493 1494 1495 1496 1496 1496 1497 1498 1498 1499 1499 1499 1499 1499 1499 1499 1499 1501 1503 1504 1504 1504 1506 1506 1504 1504 1506 1507 1509 1511 1512 1513 1514 1514 1513 1513 1513 1513 1514 1513 1512 1512 1512 1512 1512 1511 1511 1510 1510 1509 1509 1509 1508 1507 1506 1505 1504 1504 1503 1502 1502 1501 1500 1499 1499 1499 1498 1498 1497 1496 1495 1494 1492 1491 1490 1488 1487
1489 1490 1491 1491 1492 1492 1493 1493 1493 1494 1494 1495 1495 1495 1495 1496 1496 1497 1497 1497 1497 1497 1497 1497 1497 1498 1499 1500 1501 1502 1503 1503 1501 1501 1503 1505 1507 1507 1508 1510 1511 1512 1511 1511 1512 1512 1511 1511 1510 1509 1508 1508 1508 1508 1507 1507 1506 1506 1505 1505 1505 1505 1504 1503 1501 1500 1500 1498 1498 1498 1497 1496 1495 1495 1495 1494 1494 1493 1492 1492 1490 1489 1488 1486 1485
1489 1490 1490 1491 1491 1492 1492 1492 1493 1493 1493 1494 1494 1494 1495 1495 1495 1495 1495 1495 1495 1494 1495 1494 1495 1495 1495 1497 1498 1498 1498 1499 1499 1499 1501 1503 1504 1504 1506 1508 1508 1509 1509 1509 1510 1510 1510 1510 1509 1508 1506 1505 1505 1505 1504 1503 1503 1502 1501 1500 1500 1500 1500 1499 1498 1497 1496 1495 1493 1493 1493 1492 1492 1492 1492 1491 1491 1490 1489 1489 1488 1486 1486 1484 1483
1489 1489 1490 1490 1491 1491 1492 1492 1492 1492 1492 1492 1493 1493 1493 1494 1494 1494 1493 1493 1492 1492 1492 1492 1493 1493 1493 1494 1496 1495 1495 1496 1497 1498 1499 1501 1501 1502 1504 1506 1506 1507 1507 1507 1508 1509 1508 1508 1507 1506 1505 1504 1503 1503 1502 1501 1500 1499 1498 1497 1496 1495 1494 1494 1494 1493 1493 1491 1489 1488 1488 1488 1487 1487 1488 1487 1486 1485 1485 1485 1485 1484 1482 1481 1480
1488 1489 1489 1489 1490 1490 1490 1491 1491 1491 1490 1491 1491 1491 1492 1492 1492 1492 1491 1490 1490 1489 1489 1490 1491 1491 1492 1493 1494 1493 1493 1494 1495 1496 1498 1498 1498 1500 1503 1503 1503 1504 1505 1505 1505 1505 1505 1505 1504 1504 1504 1502 1502 1501 1501 1500 1500 1498 1497 1495 1494 1493 1491 1490 1490 1489 1488 1487 1485 1484 1484 1484 1483 1482 1483 1483 1482 1481 1481 1480 1480 1479 1478 1477 1476
1487 1487 1487 1488 1488 1488 1488 1488 1489 1488 1488 1489 1489 1489 1490 1490 1489 1489 1489 1489 1488 1488 1488 1487 1488 1488 1489 1491 1491 1489 1490 1492 1493 1495 1496 1496 1497 1499 1501 1500 1500 1502 1503 1502 1502 1502 1502 1502 1501 1501 1501 1500 1500 1499 1498 1498 1497 1496 1494 1493 1491 1491 1489 1488 1487 1486 1485 1483 1481 1480 1480 1480 1480 1479 1479 1479 1478 1477 1476 1475 1474 1473 1472 1471 1471
1485 1485 1486 1486 1486 1486 1486 1486 1486 1486 1486 1486 1487 1487 1487 1487 1487 1487 1487 1486 1486 1486 1486 1486 1486 1486 1487 1488 1488 1486 1488 1491 1492 1492 1493 1494 1495 1497 1498 1498 1499 1500 1500 1500 1500 1500 1499 1499 1499 1499 1498 1498 1497 1496 1495 1494 1493 1492 1491 1489 1488 1486 1486 1485 1484 1483 1482 1481 1479 1478 1477 1477 1476 1475 1475 1474 1473 1473 1472 1470 1470 1470 1469 1468 1467
1483 1484 1484 1484 1484 1484 1484 1484 1484 1484 1484 1484 1484 1485 1485 1485 1485 1485 1484 1484 1484 1484 1484 1484 1484 1484 1484 1485 1484 1483 1485 1488 1489 1490 1491 1491 1493 1495 1496 1497 1498 1498 1498 1498 1498 1498 1497 1497 1497 1496 1496 1496 1495 1493 1491 1491 1490 1489 1487 1485 1484 1483 1482 1482 1481 1479 1478 1477 1475 1474 1473 1472 1471 1470 1470 1470 1469 1470 1468 1465 1465 1467 1466 1464 1463
1481 1482 1482 1482 1482 1482 1482 1482 1482 1482 1482 1482 1482 1482 1482 1482 1482 1482 1482 1482 1482 1482 1482 1482 1482 1482 1482 1482 1481 1481 1484 1486 1486 1488 1488 1489 1491 1493 1495 1496 1496 1497 1497 1496 1496 1496 1495 1495 1494 1493 1493 1493 1492 1490 1488 1487 1486 1485 1484 1482 1481 1480 1479 1479 1477 1475 1474 1473 1472 1470 1468 1467 1466 1465 1464 1464 1464 1465 1463 1460 1461 1464 1462 1460 1459
1479 1479 1479 1479 1479 1479 1479 1479 1479 1479 1479 1479 1479 1479 1479 1480 1480 1480 1480 1480 1480 1480 1480 1480 1480 1480 1480 1479 1479 1480 1483 1484 1484 1485 1486 1487 1489 1491 1492 1494 1494 1495 1495 1495 1495 1494 1494 1493 1491 1490 1490 1489 1488 1486 1484 1483 1482 1481 1480 1478 1477 1476 1476 1475 1473 1471 1469 1468 1467 1466 1464 1463 1462 1460 1459 1459 1459 1459 1458 1456 1457 1458 1456 1455 1456
1476 1476 1476 1476 1476 1476 1476 1476 1476 1476 1476 1476 1476 1476 1476 1477 1477 1477 1477 1477 1478 1478 1478 1478 1478 1478 1477 1477 1477 1480 1482 1483 1483 1483 1484 1485 1487 1488 1489 1491 1492 1492 1492 1492 1492 1491 1491 1491 1489 1487 1486 1486 1484 1483 1481 1480 1479 1477 1476 1474 1473 1472 1471 1470 1468 1466 1464 1462 1461 1460 1458 1458 1457 1456 1455 1454 1454 1454 1453 1452 1453 1453 1452 1452 1452
1473 1473 1473 1473 1473 1473 1473 1474 1473 1473 1472 1472 1472 1472 1473 1474 1474 1475 1475 1475 1475 1476 1475 1475 1475 1475 1475 1476 1477 1479 1480 1481 1481 1482 1482 1484 1485 1486 1487 1488 1489 1489 1489 1489 1489 1488 1488 1489 1487 1483 1483 1482 1480 1479 1477 1476 1474 1473 1471 1469 1468 1467 1465 1463 1462 1460 1458 1456 1455 1454 1453 1452 1452 1451 1451 1450 1449 1449 1449 1448 1448 1448 1448 1447 1448
1470 1470 1470 1470 1470 1470 1470 1471 1470 1469 1469 1468 1468 1469 1469 1470 1471 1471 1472 1472 1472 1472 1473 1473 1473 1473 1474 1476 1477 1477 1478 1479 1480 1481 1482 1483 1483 1484 1485 1485 1485 1486 1485 1485 1485 1485 1485 1486 1484 1480 1479 1478 1476 1475 1473 1471 1470 1468 1466 1464 1463 1461 1460 1457 1456 1455 1453 1452 1450 1449 1448 1448 1447 1447 1447 1446 1446 1445 1445 1445 1445 1444 1444 1443 1443
1467 1467 1467 1467 1467 1467 1467 1467 1467 1466 1465 1465 1465 1465 1466 1467 1468 1468 1468 1469 1468 1469 1470 1471 1470 1471 1473 1476 1476 1476 1477 1478 1480 1481 1482 1482 1482 1482 1483 1483 1483 1483 1482 1482 1482 1482 1481 1481 1480 1478 1476 1474 1473 1471 1469 1467 1465 1463 1461 1460 1458 1456 1455 1453 1451 1450 1449 1448 1447 1445 1445 1445 1444 1443 1443 1443 1442 1442 1442 1441 1441 1441 1440 1439 1439
1463 1463 1463 1463 1463 1464 1463 1463 1463 1463 1462 1462 1462 1462 1462 1464 1464 1464 1464 1465 1465 1466 1468 1468 1468 1470 1473 1475 1475 1475 1476 1478 1479 1480 1481 1481 1481 1481 1481 1480 1480 1480 1480 1479 1479 1478 1478 1477 1476 1473 1471 1470 1468 1466 1464 1462 1460 1459 1457 1456 1454 1453 1451 1449 1448 1447 1446 1445 1444 1443 1442 1441 1441 1440 1439 1439 1439 1439 1438 1438 1438 1437 1437 1436 1436
1459 1459 1459 1459 1460 1460 1460 1460 1460 1460 1460 1459 1459 1459 1459 1460 1460 1461 1461 1461 1463 1465 1466 1466 1467 1469 1472 1474 1475 1474 1475 1477 1478 1479 1480 1481 1481 1480 1479 1479 1478 1478 1478 1477 1476 1475 1474 1472 1470 1469 1466 1464 1462 1460 1459 1458 1456 1455 1453 1452 1451 1450 1448 1447 1446 1445 1444 1442 1441 1440 1439 1439 1438 1437 1437 1436 1435 1435 1434 1434 1434 1434 1433 1433 1432
1455 1455 1455 1455 1456 1456 1456 1456 1456 1456 1456 1456 1456 1456 1456 1456 1457 1458 1458 1459 1461 1463 1465 1466 1467 1470 1472 1474 1475 1475 1475 1477 1478 1478 1479 1480 1480 1479 1478 1477 1477 1476 1475 1474 1472 1471 1469 1468 1466 1464 1462 1461 1459 1458 1456 1455 1454 1452 1451 1450 1449 1448 1447 1446 1444 1443 1442 1440 1439 1438 1437 1436 1435 1434 1434 1433 1432 1431 1431 1430 1430 1430 1430 1429 1428
1451 1451 1451 1451 1452 1452 1452 1452 1453 1453 1453 1453 1453 1453 1452 1453 1454 1455 1456 1457 1460 1462 1464 1464 1466 1470 1472 1473 1474 1475 1476 1477 1478 1478 1478 1479 1480 1479 1477 1476 1475 1474 1473 1471 1470 1468 1467 1465 1463 1462 1460 1459 1458 1456 1455 1453 1452 1451 1450 1449 1448 1447 1446 1444 1443 1441 1439 1438 1437 1435 1434 1433 1432 1431 1431 1430 1428 1428 1427 1427 1426 1426 1426 1426 1424
1447 1448 1448 1448 1448 1448 1448 1449 1449 1450 1450 1450 1450 1450 1450 1450 1452 1453 1455 1457 1458 1460 1462 1464 1466 1469 1470 1472 1473 1474 1474 1475 1476 1477 1477 1478 1479 1478 1477 1475 1474 1472 1471 1469 1467 1466 1464 1462 1461 1460 1460 1459 1457 1456 1454 1453 1451 1450 1449 1448 1446 1445 1443 1442 1440 1438 1437 1435 1434 1433 1432 1431 1429 1428 1427 1426 1425 1425 1425 1424 1424 1423 1423 1422 1420
1443 1444 1444 1444 1444 1445 1445 1445 1446 1447 1447 1446 1446 1447 1448 1450 1451 1452 1454 1456 1458 1459 1461 1463 1465 1466 1468 1470 1472 1472 1473 1474 1475 1475 1476 1476 1477 1476 1475 1474 1472 1470 1468 1466 1464 1462 1461 1460 1460 1460 1459 1458 1456 1454 1453 1451 1450 1448 1447 1445 1444 1442 1441 1439 1437 1436 1434 1433 1431 1430 1428 1427 1426 1425 1424 1423 1422 1421 1421 1421 1420 1419 1419 1418 1416
1439 1440 1440 1440 1441 1441 1442 1442 1443 1444 1443 1442 1443 1445 1447 1449 1450 1451 1453 1455 1457 1459 1460 1462 1464 1465 1467 1469 1470 1472 1474 1474 1475 1475 1474 1475 1475 1474 1473 1471 1469 1467 1465 1463 1461 1460 1459 1459 1460 1459 1457 1456 1454 1453 1451 1449 1448 1446 1444 1443 1441 1439 1438 1436 1434 1432 1431 1429 1427 1426 1425 1423 1422 1420 1420 1418 1418 1418 1417 1416 1416 1415 1414 1413 1411
1435 1435 1436 1436 1436 1437 1438 1439 1440 1441 1440 1439 1441 1443 1445 1448 1451 1452 1453 1455 1457 1459 1461 1462 1464 1466 1467 1469 1470 1472 1474 1474 1474 1474 1474 1473 1473 1472 1471 1469 1466 1464 1463 1461 1459 1459 1459 1460 1459 1457 1456 1454 1453 1451 1449 1448 1446 1444 1442 1440 1438 1436 1434 1433 1431 1429 1427 1425 1423 1422 1420 1419 1417 1416 1415 1414 1413 1413 1412 1411 1411 1410 1409 1409 1407
1430 1430 1431 1432 1433 1433 1435 1435 1436 1437 1437 1437 1439 1441 1443 1446 1450 1453 1455 1457 1458 1460 1461 1463 1465 1466 1468 1469 1471 1472 1473 1474 1474 1473 1472 1472 1471 1470 1468 1466 1464 1462 1461 1459 1459 1460 1460 1459 1458 1456 1454 1453 1451 1450 1448 1446 1444 1442 1440 1437 1435 1433 1431 1429 1427 1425 1423 1421 1419 1418 1416 1415 1413 1412 1411 1410 1409 1408 1407 1406 1406 1405 1404 1404 1403
1425 1426 1427 1428 1429 1430 1430 1431 1432 1433 1435 1436 1439 1441 1443 1445 1448 1452 1455 1457 1459 1460 1462 1464 1466 1467 1468 1470 1471 1472 1473 1473 1472 1472 1471 1471 1470 1468 1466 1464 1462 1461 1460 1460 1460 1461 1460 1458 1456 1455 1453 1451 1450 1448 1446 1444 1442 1440 1437 1435 1433 1430 1428 1426 1424 1422 1419 1417 1415 1413 1411 1410 1409 1407 1406 1405 1404 1403 1402 1402 1401 1401 1401 1400 1399
1421 1422 1423 1424 1426 1427 1426 1427 1429 1432 1434 1437 1439 1441 1443 1445 1448 1451 1454 1457 1459 1461 1463 1464 1466 1467 1469 1469 1471 1471 1472 1471 1471 1471 1470 1469 1468 1466 1464 1462 1461 1461 1461 1461 1461 1460 1459 1457 1455 1454 1452 1450 1448 1446 1444 1442 1440 1437 1435 1432 1430 1428 1425 1423 1420 1418 1415 1413 1411 1409 1407 1406 1404 1403 1402 1401 1400 1400 1399 1398 1398 1397 1397 1396 1396
1416 1418 1418 1421 1423 1423 1423 1425 1429 1432 1435 1438 1438 1440 1442 1445 1449 1452 1455 1457 1460 1462 1463 1465 1466 1468 1468 1469 1470 1470 1470 1470 1470 1470 1469 1467 1466 1464 1463 1463 1463 1463 1462 1462 1461 1459 1457 1456 1454 1452 1451 1449 1447 1445 1442 1440 1438 1435 1433 1430 1427 1425 1422 1419 1417 1414 1412 1409 1407 1405 1403 1402 1400 1399 1398 1397 1396 1395 1394 1394 1394 1394 1393 1393 1392
1412 1413 1415 1418 1420 1421 1422 1425 1429 1432 1436 1439 1440 1442 1445 1448 1451 1454 1457 1459 1461 1462 1464 1465 1466 1468 1468 1469 1469 1469 1469 1469 1469 1468 1467 1466 1465 1464 1464 1465 1466 1464 1463 1462 1460 1458 1456 1455 1453 1451 1449 1447 1445 1443 1441 1438 1436 1433 1430 1428 1424 1421 1419 1416 1413 1410 1408 1406 1403 1401 1399 1398 1396 1395 1394 1392 1391 1391 1390 1390 1390 1389 1389 1389 1389
1408 1410 1412 1415 1417 1419 1423 1427 1429 1432 1437 1441 1442 1444 1448 1451 1453 1456 1458 1460 1461 1463 1464 1465 1466 1467 1468 1468 1468 1469 1468 1469 1468 1467 1466 1466 1465 1465 1465 1466 1465 1464 1462 1461 1459 1457 1455 1454 1452 1450 1448 1446 1444 1441 1438 1436 1433 1430 1428 1425 1422 1418 1415 1412 1410 1407 1404 1402 1399 1397 1395 1393 1392 1391 1390 1388 1387 1386 1386 1385 1385 1385 1385 1386 1386
1406 1408 1411 1413 1416 1419 1423 1427 1430 1434 1438 1442 1444 1446 1449 1452 1455 1457 1459 1461 1462 1464 1465 1465 1466 1467 1467 1467 1468 1468 1468 1468 1467 1466 1466 1466 1466 1466 1466 1466 1464 1463 1461 1460 1458 1456 1454 1452 1450 1448 1446 1444 1442 1439 1436 1433 1431 1428 1425 1422 1419 1415 1412 1409 1406 1403 1400 1398 1396 1393 1391 1389 1388 1387 1385 1384 1382 1382 1381 1381 1381 1381 1381 1381 1382
1405 1408 1411 1414 1417 1421 1425 1429 1432 1436 1440 1443 1446 1449 1451 1454 1456 1458 1460 1462 1463 1464 1465 1466 1466 1467 1467 1467 1467 1467 1467 1467 1466 1466 1467 1467 1467 1466 1466 1465 1463 1462 1460 1459 1457 1455 1453 1451 1449 1447 1445 1442 1440 1437 1434 1431 1428 1425 1422 1419 1415 1412 1409 1406 1403 1400 1397 1394 1392 1389 1387 1385 1384 1382 1381 1380 1378 1378 1377 1377 1377 1377 1377 1377 1378
1405 1408 1412 1416 1420 1424 1428 1432 1435 1439 1442 1445 1448 1451 1453 1455 1458 1459 1460 1462 1463 1464 1465 1466 1467 1467 1467 1467 1467 1467 1467 1467 1467 1468 1468 1467 1467 1466 1465 1464 1462 1461 1459 1458 1455 1454 1452 1450 1448 1445 1443 1441 1438 1435 1433 1430 1426 1423 1420 1416 1413 1410 1407 1403 1400 1397 1394 1391 1388 1386 1384 1382 1380 1379 1377 1376 1375 1374 1373 1373 1373 1373 1373 1374 1375
1408 1412 1416 1421 1424 1428 1433 1436 1439 1442 1445 1448 1450 1453 1455 1457 1459 1460 1461 1462 1463 1465 1466 1466 1467 1467 1467 1467 1466 1467 1467 1467 1467 1467 1467 1466 1465 1465 1464 1463 1461 1460 1458 1456 1454 1452 1451 1449 1446 1444 1442 1440 1437 1434 1431 1428 1425 1421 1418 1414 1411 1408 1404 1401 1397 1394 1391 1388 1385 1383 1381 1379 1377 1376 1374 1373 1372 1371 1370 1370 1370 1370 1371 1371 1372
1415 1418 1422 1426 1430 1433 1437 1440 1443 1446 1448 1450 1452 1454 1456 1458 1459 1460 1462 1463 1464 1465 1466 1466 1466 1466 1466 1466 1466 1465 1466 1466 1466 1466 1465 1465 1464 1464 1463 1462 1461 1459 1457 1455 1453 1452 1450 1447 1445 1444 1441 1439 1436 1433 1430 1427 1423 1420 1416 1412 1409 1406 1402 1399 1395 1392 1389 1386 1383 1381 1379 1377 1375 1373 1372 1371 1370 1369 1368 1368 1368 1368 1369 1369 1371
1423 1425 1428 1432 1435 1438 1440 1443 1445 1447 1449 1451 1453 1455 1457 1458 1460 1461 1462 1463 1464 1465 1466 1466 1466 1465 1465 1465 1465 1465 1465 1465 1465 1465 1464 1463 1463 1462 1462 1461 1459 1457 1456 1454 1453 1451 1449 1447 1445 1443 1441 1439 1436 1433 1430 1426 1423 1419 1415 1411 1408 1404 1400 1397 1393 1390 1387 1384 1381 1379 1377 1374 1372 1371 1370 1369 1369 1368 1367 1367 1367 1367 1368 1369 1370
1428 1431 1434 1436 1438 1440 1442 1444 1445 1447 1450 1452 1454 1456 1457 1459 1460 1461 1462 1463 1464 1465 1466 1466 1465 1465 1465 1464 1464 1464 1465 1465 1464 1463 1463 1462 1462 1462 1461 1459 1457 1455 1454 1453 1452 1450 1448 1446 1444 1442 1440 1438 1435 1432 1429 1426 1422 1418 1414 1410 1406 1403 1399 1395 1392 1389 1386 1383 1380 1377 1375 1373 1371 1370 1369 1368 1368 1367 1367 1367 1367 1367 1368 1369 1370
1431 1434 1436 1439 1441 1442 1444 1446 1448 1450 1452 1454 1455 1456 1458 1459 1460 1461 1462 1462 1463 1464 1465 1465 1465 1465 1465 1464 1464 1464 1464 1464 1463 1463 1462 1462 1462 1461 1459 1458 1456 1454 1453 1452 1451 1449 1447 1445 1444 1441 1439 1437 1434 1431 1428 1425 1421 1417 1414 1410 1406 1402 1398 1395 1391 1388 1385 1382 1379 1377 1375 1373 1371 1370 1369 1368 1367 1367 1367 1367 1367 1368 1368 1368 1369
1435 1436 1439 1441 1442 1444 1446 1448 1450 1451 1453 1454 1455 1456 1457 1458 1459 1460 1461 1462 1463 1463 1464 1464 1464 1464 1464 1464 1464 1463 1463 1463 1463 1462 1461 1460 1460 1459 1457 1456 1455 1453 1452 1451 1450 1448 1447 1445 1443 1441 1439 1436 1434 1431 1428 1424 1420 1417 1413 1410 1406 1402 1399 1395 1392 1388 1385 1382 1379 1377 1375 1373 1371 1370 1369 1368 1367 1367 1367 1367 1367 1367 1368 1368 1368
1438 1440 1441 1443 1445 1446 1448 1450 1451 1453 1454 1455 1456 1457 1458 1459 1460 1461 1461 1462 1463 1463 1464 1464 1464 1464 1464 1464 1463 1462 1462 1462 1461 1460 1459 1459 1458 1457 1456 1455 1454 1453 1451 1450 1449 1448 1446 1445 1443 1441 1438 1436 1433 1430 1427 1423 1420 1416 1413 1409 1406 1403 1399 1396 1392 1388 1385 1382 1380 1378 1375 1373 1372 1370 1369 1368 1367 1367 1367 1367 1367 1367 1367 1367 1367
1441 1443 1444 1446 1447 1449 1450 1451 1453 1454 1455 1456 1456 1457 1458 1459 1460 1461 1461 1462 1463 1463 1463 1464 1464 1463 1463 1463 1462 1461 1461 1461 1460 1459 1460 1460 1459 1457 1456 1455 1453 1452 1451 1450 1449 1448 1446 1444 1442 1440 1438 1436 1433 1430 1427 1424 1420 1416 1413 1409 1406 1403 1400 1396 1393 1389 1386 1383 1381 1379 1376 1375 1373 1371 1370 1369 1368 1368 1367 1367 1367 1367 1367 1367 1368
1444 1446 1447 1448 1449 1450 1451 1453 1454 1454 1455 1456 1457 1458 1459 1460 1460 1461 1462 1462 1463 1463 1463 1463 1463 1463 1462 1462 1461 1461 1460 1460 1459 1459 1459 1459 1458 1457 1455 1454 1453 1451 1450 1450 1449 1447 1446 1444 1443 1440 1439 1437 1434 1431 1428 1425 1421 1417 1413 1410 1407 1404 1401 1397 1394 1390 1387 1385 1383 1380 1378 1376 1374 1373 1371 1370 1369 1369 1369 1368 1368 1368 1368 1368 1369
1447 1448 1449 1450 1451 1452 1453 1454 1454 1455 1456 1457 1458 1459 1459 1460 1461 1461 1462 1462 1462 1462 1462 1462 1462 1462 1461 1461 1460 1460 1459 1459 1459 1459 1458 1458 1457 1456 1455 1454 1453 1451 1450 1449 1448 1447 1446 1445 1443 1441 1439 1438 1435 1433 1430 1426 1423 1419 1415 1411 1408 1405 1402 1399 1395 1392 1389 1387 1385 1382 1380 1378 1376 1375 1373 1372 1371 1370 1370 1370 1370 1370 1370 1370 1371
1449 1450 1451 1451 1452 1453 1454 1454 1455 1456 1457 1458 1458 1459 1460 1460 1461 1461 1461 1461 1461 1461 1461 1461 1461 1460 1460 1460 1459 1459 1458 1458 1458 1458 1458 1458 1457 1456 1455 1454 1452 1451 1450 1449 1449 1448 1447 1445 1443 1441 1440 1439 1437 1434 1432 1428 1424 1421 1417 1413 1410 1407 1404 1401 1398 1394 1391 1389 1387 1385 1383 1381 1379 1377 1376 1374 1373 1373 1373 1372 1372 1372 1372 1373 1373